Time,TemperatureF,DewpointF,PressureIn,WindDirection,WindDirectionDegrees,WindSpeedMPH,WindSpeedGustMPH,Humidity,HourlyPrecipIn,Conditions,Clouds,dailyrainin,SoftwareType,DateUTC
2013-07-06 08:22:00,57.0,56.0,29.99,West,276,2.0,4.0,95,0.00,,,0.00,,2013-07-06 15:22:00,
2013-07-06 08:33:00,57.0,56.0,29.99,West,276,2.0,4.0,95,0.00,,,0.00,,2013-07-06 15:33:00,
2013-07-06 08:43:00,57.0,56.0,29.99,West,276,2.0,4.0,95,0.00,,,0.00,,2013-07-06 15:43:00,
2013-07-06 08:53:00,57.0,56.0,29.98,West,281,2.0,4.0,95,0.00,,,0.00,,2013-07-06 15:53:00,
2013-07-06 09:13:00,57.0,56.0,29.98,West,281,2.0,4.0,95,0.00,,,0.00,,2013-07-06 16:13:00,
2013-07-06 09:22:00,58.0,56.0,29.98,NW,305,2.0,5.0,92,0.00,,,0.00,,2013-07-06 16:22:00,
2013-07-06 09:34:00,58.0,56.0,29.98,NW,305,2.0,5.0,92,0.00,,,0.00,,2013-07-06 16:34:00,
2013-07-06 09:57:00,58.0,56.0,29.98,NW,305,2.0,5.0,92,0.00,,,0.00,,2013-07-06 16:57:00,
2013-07-06 10:04:00,60.0,57.0,29.98,SW,226,1.0,4.0,89,0.00,,,0.00,,2013-07-06 17:04:00,
2013-07-06 10:24:00,62.0,56.0,29.97,NW,312,2.0,8.0,82,0.00,,,0.00,,2013-07-06 17:24:00,
2013-07-06 10:34:00,62.0,56.0,29.97,NW,312,2.0,8.0,82,0.00,,,0.00,,2013-07-06 17:34:00,
2013-07-06 11:04:00,63.0,56.0,29.97,WSW,250,4.0,8.0,78,0.00,,,0.00,,2013-07-06 18:04:00,
2013-07-06 11:16:00,63.0,56.0,29.97,WSW,250,4.0,8.0,78,0.00,,,0.00,,2013-07-06 18:16:00,
2013-07-06 11:34:00,64.0,56.0,29.96,West,260,4.0,8.0,75,0.00,,,0.00,,2013-07-06 18:34:00,
2013-07-06 12:02:00,65.0,56.0,29.96,WSW,257,5.0,10.0,72,0.00,,,0.00,,2013-07-06 19:02:00,
2013-07-06 12:15:00,65.0,56.0,29.96,WSW,257,5.0,10.0,72,0.00,,,0.00,,2013-07-06 19:15:00,
2013-07-06 12:34:00,66.0,56.0,29.96,West,274,4.0,8.0,71,0.00,,,0.00,,2013-07-06 19:34:00,
2013-07-06 13:02:00,67.0,56.0,29.95,West,273,5.0,7.0,68,0.00,,,0.00,,2013-07-06 20:02:00,
2013-07-06 13:15:00,67.0,56.0,29.95,West,273,5.0,7.0,68,0.00,,,0.00,,2013-07-06 20:15:00,
2013-07-06 13:25:00,69.0,56.0,29.95,NW,307,5.0,9.0,63,0.00,,,0.00,,2013-07-06 20:25:00,
2013-07-06 14:14:00,70.0,58.0,29.94,NNW,344,4.0,10.0,65,0.00,,,0.00,,2013-07-06 21:14:00,
2013-07-06 14:35:00,71.0,58.0,29.93,NW,318,5.0,12.0,63,0.00,,,0.00,,2013-07-06 21:35:00,
2013-07-06 14:58:00,71.0,58.0,29.93,NW,318,5.0,12.0,63,0.00,,,0.00,,2013-07-06 21:58:00,
2013-07-06 15:15:00,72.0,54.0,29.93,NNW,338,6.0,10.0,53,0.00,,,0.00,,2013-07-06 22:15:00,
2013-07-06 15:24:00,72.0,53.0,29.92,NE,39,7.0,14.0,51,0.00,,,0.00,,2013-07-06 22:24:00,
2013-07-06 15:34:00,72.0,53.0,29.92,NE,39,7.0,14.0,51,0.00,,,0.00,,2013-07-06 22:34:00,
2013-07-06 15:57:00,72.0,53.0,29.92,NE,39,7.0,14.0,51,0.00,,,0.00,,2013-07-06 22:57:00,
2013-07-06 16:03:00,74.0,52.0,29.91,North,7,4.0,11.0,47,0.00,,,0.00,,2013-07-06 23:03:00,
2013-07-06 16:15:00,74.0,52.0,29.91,North,7,4.0,11.0,47,0.00,,,0.00,,2013-07-06 23:15:00,
2013-07-06 16:35:00,74.0,52.0,29.90,WNW,297,2.0,9.0,47,0.00,,,0.00,,2013-07-06 23:35:00,
2013-07-06 16:56:00,74.0,52.0,29.90,WNW,297,2.0,9.0,47,0.00,,,0.00,,2013-07-06 23:56:00,
2013-07-06 17:02:00,74.0,53.0,29.90,NW,310,4.0,9.0,48,0.00,,,0.00,,2013-07-07 00:02:00,
2013-07-06 17:03:00,75.0,53.0,29.89,WNW,302,6.0,12.0,47,0.00,,,0.00,,2013-07-07 00:03:00,
2013-07-06 17:16:00,74.0,53.0,29.90,NW,310,4.0,9.0,48,0.00,,,0.00,,2013-07-07 00:16:00,
2013-07-06 17:23:00,75.0,53.0,29.89,WNW,302,6.0,12.0,47,0.00,,,0.00,,2013-07-07 00:23:00,
2013-07-06 17:33:00,75.0,53.0,29.89,WNW,302,6.0,12.0,47,0.00,,,0.00,,2013-07-07 00:33:00,
2013-07-06 17:57:00,75.0,53.0,29.89,WNW,302,6.0,12.0,47,0.00,,,0.00,,2013-07-07 00:57:00,
2013-07-06 20:01:00,75.0,55.0,29.87,North,3,5.0,8.0,49,0.00,,,0.00,,2013-07-07 03:01:00,
2013-07-06 20:40:00,75.0,55.0,29.87,North,3,5.0,8.0,49,0.00,,,0.00,,2013-07-07 03:40:00,
2013-07-06 20:51:00,75.0,55.0,29.87,North,3,5.0,8.0,49,0.00,,,0.00,,2013-07-07 03:51:00,
2013-07-06 20:58:00,75.0,55.0,29.87,North,3,5.0,8.0,49,0.00,,,0.00,,2013-07-07 03:58:00,
2013-07-06 23:11:00,67.0,55.0,29.89,SW,233,1.0,2.0,65,0.00,,,0.00,,2013-07-07 06:11:00,
2013-07-06 23:21:00,67.0,55.0,29.89,SW,233,1.0,2.0,65,0.00,,,0.00,,2013-07-07 06:21:00,
2013-07-06 23:32:00,67.0,55.0,29.89,SW,233,1.0,2.0,65,0.00,,,0.00,,2013-07-07 06:32:00,
2013-07-06 23:43:00,67.0,55.0,29.89,SW,233,1.0,2.0,65,0.00,,,0.00,,2013-07-07 06:43:00,
2013-07-06 23:52:00,62.0,55.0,29.89,SW,215,0.0,1.0,78,0.00,,,0.00,,2013-07-07 06:52:00,